| time (UTC) | temp F | wind direction | speed MPH | gust MPH | rain 1hr in | rain 24hr in | rain mn in | humidity % | barometer mb |
| 20260505024848 | 68 | 202 | 7.0 | 12.0 | 0.00 | 0.00 | 0.00 | 73 | 1012.3 |
| 20260505024345 | 68 | 202 | 10.0 | 14.0 | 0.00 | 0.00 | 0.00 | 74 | 1012.2 |
| 20260505023842 | 68 | 203 | 9.0 | 12.0 | 0.00 | 0.00 | 0.00 | 74 | 1012.2 |
| 20260505023339 | 69 | 194 | 7.0 | 15.0 | 0.00 | 0.00 | 0.00 | 74 | 1012.0 |
| 20260505022836 | 68 | 214 | 8.0 | 10.0 | 0.00 | 0.00 | 0.00 | 74 | 1012.1 |
| 20260505022333 | 69 | 203 | 7.0 | 10.0 | 0.00 | 0.00 | 0.00 | 74 | 1012.0 |
| 20260505021830 | 69 | 206 | 8.0 | 9.0 | 0.00 | 0.00 | 0.00 | 74 | 1011.9 |
| 20260505021327 | 69 | 198 | 6.0 | 8.0 | 0.00 | 0.00 | 0.00 | 74 | 1012.0 |
| 20260505020822 | 69 | 203 | 6.0 | 7.0 | 0.00 | 0.00 | 0.00 | 74 | 1011.7 |
| 20260505020318 | 69 | 205 | 6.0 | 12.0 | 0.00 | 0.00 | 0.00 | 74 | 1011.9 |
| 20260505015815 | 70 | 204 | 10.0 | 10.0 | 0.00 | 0.00 | 0.00 | 74 | 1011.5 |
| 20260505015313 | 70 | 208 | 6.0 | 9.0 | 0.00 | 0.00 | 0.00 | 74 | 1011.4 |
| 20260505014810 | 70 | 210 | 7.0 | 11.0 | 0.00 | 0.00 | 0.00 | 74 | 1011.3 |
| 20260505014307 | 70 | 200 | 5.0 | 7.0 | 0.00 | 0.00 | 0.00 | 74 | 1011.5 |
| 20260505013803 | 70 | 212 | 5.0 | 9.0 | 0.00 | 0.00 | 0.00 | 74 | 1011.3 |
| 20260505013300 | 70 | 198 | 4.0 | 6.0 | 0.00 | 0.00 | 0.00 | 74 | 1011.3 |
| 20260505012759 | 71 | 204 | 7.0 | 10.0 | 0.00 | 0.00 | 0.00 | 74 | 1011.4 |
| 20260505012256 | 71 | 203 | 9.0 | 13.0 | 0.00 | 0.00 | 0.00 | 74 | 1011.2 |
| 20260505011752 | 71 | 200 | 6.0 | 8.0 | 0.00 | 0.00 | 0.00 | 74 | 1011.2 |
| 20260505011249 | 71 | 207 | 9.0 | 12.0 | 0.00 | 0.00 | 0.00 | 74 | 1011.2 |
| 20260505010744 | 71 | 203 | 5.0 | 9.0 | 0.00 | 0.00 | 0.00 | 74 | 1011.2 |
| 20260505010241 | 72 | 212 | 6.0 | 9.0 | 0.00 | 0.00 | 0.00 | 74 | 1011.0 |
| 20260505005737 | 72 | 218 | 5.0 | 11.0 | 0.00 | 0.00 | 0.00 | 74 | 1011.1 |
| 20260505005234 | 72 | 209 | 10.0 | 13.0 | 0.00 | 0.00 | 0.00 | 74 | 1010.9 |
| 20260505004731 | 72 | 159 | 3.0 | 13.0 | 0.00 | 0.00 | 0.00 | 74 | 1011.1 |
| 20260505004228 | 73 | 202 | 11.0 | 13.0 | 0.00 | 0.00 | 0.00 | 74 | 1010.9 |
| 20260505003725 | 73 | 225 | 9.0 | 12.0 | 0.00 | 0.00 | 0.00 | 74 | 1011.1 |
| 20260505003223 | 74 | 204 | 4.0 | 14.0 | 0.00 | 0.00 | 0.00 | 74 | 1010.8 |
| 20260505002719 | 74 | 243 | 2.0 | 12.0 | 0.00 | 0.00 | 0.00 | 74 | 1011.2 |
| 20260505002217 | 74 | 205 | 6.0 | 14.0 | 0.00 | 0.00 | 0.00 | 74 | 1010.9 |
| 20260505001714 | 75 | 212 | 8.0 | 13.0 | 0.00 | 0.00 | 0.00 | 74 | 1010.8 |
| 20260505001211 | 75 | 218 | 13.0 | 13.0 | 0.00 | 0.00 | 0.00 | 74 | 1010.8 |
| 20260505000708 | 76 | 206 | 11.0 | 12.0 | 0.00 | 0.00 | 0.00 | 74 | 1010.8 |
| 20260505000206 | 75 | 206 | 9.0 | 15.0 | 0.00 | 0.00 | 0.00 | 74 | 1010.7 |
| 20260504235702 | 76 | 223 | 7.0 | 19.0 | 0.00 | 0.00 | 0.00 | 74 | 1010.7 |
| 20260504235158 | 76 | 203 | 11.0 | 11.0 | 0.00 | 0.00 | 0.00 | 75 | 1010.8 |
| 20260504234656 | 76 | 207 | 14.0 | 21.0 | 0.00 | 0.00 | 0.00 | 74 | 1010.8 |
| 20260504234153 | 76 | 207 | 11.0 | 16.0 | 0.00 | 0.00 | 0.00 | 75 | 1010.8 |
| 20260504233649 | 76 | 204 | 12.0 | 16.0 | 0.00 | 0.00 | 0.00 | 75 | 1011.0 |
| 20260504233145 | 76 | 204 | 8.0 | 18.0 | 0.00 | 0.00 | 0.00 | 75 | 1010.8 |
| 20260504232643 | 77 | 200 | 5.0 | 9.0 | 0.00 | 0.00 | 0.00 | 75 | 1010.8 |
| 20260504232139 | 78 | 222 | 9.0 | 21.0 | 0.00 | 0.00 | 0.00 | 75 | 1010.9 |
| 20260504231636 | 77 | 207 | 12.0 | 22.0 | 0.00 | 0.00 | 0.00 | 75 | 1011.1 |
| 20260504231132 | 78 | 231 | 19.0 | 19.0 | 0.00 | 0.00 | 0.00 | 75 | 1010.9 |
| 20260504230629 | 78 | 218 | 7.0 | 16.0 | 0.00 | 0.00 | 0.00 | 75 | 1011.0 |
| 20260504230128 | 78 | 206 | 10.0 | 14.0 | 0.00 | 0.00 | 0.00 | 75 | 1010.8 |
| 20260504225626 | 78 | 205 | 6.0 | 16.0 | 0.00 | 0.00 | 0.00 | 75 | 1010.9 |
| 20260504225121 | 78 | 264 | 5.0 | 19.0 | 0.00 | 0.00 | 0.00 | 75 | 1011.1 |
| 20260504224618 | 78 | 204 | 11.0 | 16.0 | 0.00 | 0.00 | 0.00 | 75 | 1010.9 |
| 20260504224115 | 78 | 229 | 6.0 | 21.0 | 0.00 | 0.00 | 0.00 | 75 | 1011.0 |
| 20260504223612 | 78 | 208 | 12.0 | 20.0 | 0.00 | 0.00 | 0.00 | 75 | 1010.9 |
| 20260504223108 | 79 | 212 | 6.0 | 14.0 | 0.00 | 0.00 | 0.00 | 75 | 1011.0 |
| 20260504222605 | 78 | 264 | 5.0 | 17.0 | 0.00 | 0.00 | 0.00 | 75 | 1010.9 |
| 20260504222102 | 78 | 256 | 5.0 | 18.0 | 0.00 | 0.00 | 0.00 | 75 | 1011.1 |
| 20260504221559 | 78 | 191 | 6.0 | 21.0 | 0.00 | 0.00 | 0.00 | 75 | 1011.2 |
| 20260504221056 | 78 | 197 | 9.0 | 20.0 | 0.00 | 0.00 | 0.00 | 75 | 1011.1 |
| 20260504220552 | 78 | 253 | 7.0 | 18.0 | 0.00 | 0.00 | 0.00 | 75 | 1011.1 |
| 20260504220049 | 78 | 205 | 12.0 | 15.0 | 0.00 | 0.00 | 0.00 | 75 | 1011.0 |
| 20260504215546 | 78 | 217 | 17.0 | 22.0 | 0.00 | 0.00 | 0.00 | 75 | 1011.3 |
| 20260504215044 | 79 | 211 | 4.0 | 15.0 | 0.00 | 0.00 | 0.00 | 75 | 1011.3 |
| 20260504214539 | 78 | 213 | 16.0 | 19.0 | 0.00 | 0.00 | 0.00 | 75 | 1011.3 |
| 20260504214036 | 78 | 208 | 14.0 | 24.0 | 0.00 | 0.00 | 0.00 | 75 | 1011.4 |
| 20260504213532 | 78 | 214 | 9.0 | 20.0 | 0.00 | 0.00 | 0.00 | 75 | 1011.1 |
| 20260504213030 | 78 | 212 | 12.0 | 21.0 | 0.00 | 0.00 | 0.00 | 75 | 1011.2 |
| 20260504212525 | 79 | 253 | 13.0 | 21.0 | 0.00 | 0.00 | 0.00 | 75 | 1011.4 |
| 20260504212023 | 79 | 210 | 4.0 | 21.0 | 0.00 | 0.00 | 0.00 | 75 | 1011.6 |
| 20260504211520 | 79 | 246 | 13.0 | 18.0 | 0.00 | 0.00 | 0.00 | 75 | 1011.4 |
| 20260504211017 | 79 | 103 | 4.0 | 22.0 | 0.00 | 0.00 | 0.00 | 75 | 1011.6 |
| 20260504210514 | 78 | 222 | 7.0 | 22.0 | 0.00 | 0.00 | 0.00 | 75 | 1011.6 |
| 20260504210010 | 79 | 240 | 5.0 | 17.0 | 0.00 | 0.00 | 0.00 | 75 | 1011.7 |
| 20260504205508 | 78 | 213 | 9.0 | 24.0 | 0.00 | 0.00 | 0.00 | 75 | 1011.6 |
| 20260504205006 | 79 | 264 | 9.0 | 18.0 | 0.00 | 0.00 | 0.00 | 75 | 1011.7 |
| 20260504204504 | 78 | 200 | 9.0 | 26.0 | 0.00 | 0.00 | 0.00 | 75 | 1011.8 |
| 20260504204003 | 79 | 236 | 5.0 | 21.0 | 0.00 | 0.00 | 0.00 | 75 | 1011.8 |
| 20260504203500 | 79 | 249 | 9.0 | 19.0 | 0.00 | 0.00 | 0.00 | 75 | 1011.8 |
| 20260504202956 | 80 | 256 | 16.0 | 20.0 | 0.00 | 0.00 | 0.00 | 75 | 1012.1 |
| 20260504202453 | 80 | 225 | 4.0 | 16.0 | 0.00 | 0.00 | 0.00 | 75 | 1012.0 |
| 20260504201950 | 79 | 216 | 2.0 | 15.0 | 0.00 | 0.00 | 0.00 | 75 | 1012.0 |
| 20260504201447 | 78 | 230 | 26.0 | 27.0 | 0.00 | 0.00 | 0.00 | 75 | 1012.0 |
| 20260504200944 | 78 | 209 | 18.0 | 22.0 | 0.00 | 0.00 | 0.00 | 75 | 1012.2 |
| 20260504200441 | 79 | 247 | 17.0 | 23.0 | 0.00 | 0.00 | 0.00 | 75 | 1012.2 |
| 20260504195938 | 79 | 206 | 5.0 | 21.0 | 0.00 | 0.00 | 0.00 | 75 | 1012.3 |
| 20260504195433 | 79 | 215 | 31.0 | 31.0 | 0.00 | 0.00 | 0.00 | 75 | 1012.4 |
| 20260504194930 | 78 | 223 | 20.0 | 22.0 | 0.00 | 0.00 | 0.00 | 75 | 1012.4 |
| 20260504194426 | 78 | 261 | 11.0 | 22.0 | 0.00 | 0.00 | 0.00 | 75 | 1012.4 |
| 20260504193922 | 78 | 221 | 2.0 | 20.0 | 0.00 | 0.00 | 0.00 | 75 | 1012.3 |
| 20260504193420 | 78 | 199 | 9.0 | 32.0 | 0.00 | 0.00 | 0.00 | 75 | 1012.5 |
| 20260504192918 | 78 | 221 | 15.0 | 21.0 | 0.00 | 0.00 | 0.00 | 75 | 1012.5 |
| 20260504192415 | 77 | 210 | 15.0 | 25.0 | 0.00 | 0.00 | 0.00 | 75 | 1012.6 |
| 20260504191914 | 78 | 210 | 14.0 | 26.0 | 0.00 | 0.00 | 0.00 | 75 | 1012.7 |
| 20260504191412 | 78 | 198 | 19.0 | 19.0 | 0.00 | 0.00 | 0.00 | 75 | 1012.7 |
| 20260504190907 | 78 | 243 | 9.0 | 17.0 | 0.00 | 0.00 | 0.00 | 75 | 1012.6 |
| 20260504190403 | 77 | 209 | 16.0 | 22.0 | 0.00 | 0.00 | 0.00 | 75 | 1012.7 |
| 20260504185900 | 77 | 222 | 22.0 | 25.0 | 0.00 | 0.00 | 0.00 | 75 | 1012.8 |
| 20260504185357 | 78 | 202 | 6.0 | 19.0 | 0.00 | 0.00 | 0.00 | 75 | 1012.6 |
| 20260504184853 | 78 | 75 | 3.0 | 25.0 | 0.00 | 0.00 | 0.00 | 75 | 1013.2 |
| 20260504184349 | 77 | 211 | 3.0 | 22.0 | 0.00 | 0.00 | 0.00 | 75 | 1012.8 |
| 20260504183845 | 78 | 210 | 6.0 | 15.0 | 0.00 | 0.00 | 0.00 | 75 | 1013.2 |
| 20260504183342 | 77 | 217 | 16.0 | 20.0 | 0.00 | 0.00 | 0.00 | 75 | 1012.8 |
| 20260504182840 | 76 | 255 | 9.0 | 22.0 | 0.00 | 0.00 | 0.00 | 75 | 1013.1 |
| 20260504182337 | 77 | 250 | 10.0 | 27.0 | 0.00 | 0.00 | 0.00 | 75 | 1013.1 |
| 20260504181834 | 76 | 208 | 14.0 | 29.0 | 0.00 | 0.00 | 0.00 | 74 | 1013.0 |
| 20260504181331 | 76 | 188 | 3.0 | 25.0 | 0.00 | 0.00 | 0.00 | 74 | 1012.8 |
| 20260504180830 | 76 | 202 | 6.0 | 22.0 | 0.00 | 0.00 | 0.00 | 74 | 1013.1 |
| 20260504180328 | 76 | 232 | 20.0 | 23.0 | 0.00 | 0.00 | 0.00 | 74 | 1013.4 |
| 20260504175826 | 76 | 219 | 10.0 | 20.0 | 0.00 | 0.00 | 0.00 | 75 | 1013.1 |
| 20260504175322 | 76 | 184 | 2.0 | 20.0 | 0.00 | 0.00 | 0.00 | 75 | 1013.3 |
| 20260504174821 | 75 | 205 | 12.0 | 25.0 | 0.00 | 0.00 | 0.00 | 74 | 1013.5 |
| 20260504174318 | 75 | 225 | 8.0 | 28.0 | 0.00 | 0.00 | 0.00 | 74 | 1013.2 |
| 20260504173814 | 75 | 195 | 9.0 | 19.0 | 0.00 | 0.00 | 0.00 | 74 | 1013.4 |
| 20260504173311 | 75 | 232 | 4.0 | 24.0 | 0.00 | 0.00 | 0.00 | 74 | 1013.6 |
| 20260504172808 | 75 | 196 | 5.0 | 20.0 | 0.00 | 0.00 | 0.00 | 74 | 1013.5 |
| 20260504172305 | 75 | 254 | 10.0 | 20.0 | 0.00 | 0.00 | 0.00 | 74 | 1013.4 |
| 20260504171800 | 75 | 213 | 9.0 | 18.0 | 0.00 | 0.00 | 0.00 | 74 | 1013.7 |
| 20260504171258 | 75 | 245 | 17.0 | 22.0 | 0.00 | 0.00 | 0.00 | 74 | 1013.5 |
| 20260504170755 | 75 | 200 | 3.0 | 27.0 | 0.00 | 0.00 | 0.00 | 74 | 1013.6 |
| 20260504170252 | 75 | 190 | 7.0 | 24.0 | 0.00 | 0.00 | 0.00 | 74 | 1013.8 |
| 20260504160210 | 73 | 241 | 4.0 | 23.0 | 0.00 | 0.00 | 0.00 | 74 | 1014.2 |
| 20260504151138 | 70 | 196 | 5.0 | 28.0 | 0.00 | 0.00 | 0.00 | 74 | 1014.7 |
| 20260504150636 | 70 | 227 | 18.0 | 23.0 | 0.00 | 0.00 | 0.00 | 74 | 1014.7 |
| 20260504150132 | 70 | 226 | 16.0 | 20.0 | 0.00 | 0.00 | 0.00 | 74 | 1014.8 |
| 20260504141101 | 67 | 264 | 8.0 | 25.0 | 0.00 | 0.00 | 0.00 | 73 | 1015.2 |
| 20260504140558 | 68 | 225 | 19.0 | 24.0 | 0.00 | 0.00 | 0.00 | 73 | 1015.4 |
| 20260504130522 | 65 | 251 | 3.0 | 15.0 | 0.00 | 0.00 | 0.00 | 73 | 1015.4 |
| 20260504110409 | 62 | 224 | 8.0 | 13.0 | 0.00 | 0.00 | 0.00 | 73 | 1014.9 |
| 20260504100326 | 62 | 259 | 0.0 | 12.0 | 0.00 | 0.00 | 0.00 | 73 | 1015.1 |
| 20260504081720 | 63 | 147 | 5.0 | 13.0 | 0.00 | 0.00 | 0.00 | 73 | 1015.2 |
| 20260504081216 | 63 | 225 | 4.0 | 17.0 | 0.00 | 0.00 | 0.00 | 73 | 1015.3 |
| 20260504080713 | 63 | 220 | 6.0 | 15.0 | 0.00 | 0.00 | 0.00 | 73 | 1015.4 |
| 20260504080209 | 63 | 230 | 7.0 | 12.0 | 0.00 | 0.00 | 0.00 | 73 | 1015.7 |
| 20260504070137 | 63 | 219 | 8.0 | 13.0 | 0.00 | 0.00 | 0.00 | 73 | 1015.8 |
| 20260504050526 | 65 | 198 | 7.0 | 12.0 | 0.00 | 0.00 | 0.00 | 73 | 1016.8 |
| 20260504050023 | 65 | 196 | 9.0 | 13.0 | 0.00 | 0.00 | 0.00 | 73 | 1016.7 |
| 20260504045519 | 65 | 206 | 9.0 | 14.0 | 0.00 | 0.00 | 0.00 | 73 | 1017.0 |
| 20260504045015 | 65 | 186 | 3.0 | 11.0 | 0.00 | 0.00 | 0.00 | 73 | 1017.0 |
| 20260504044513 | 65 | 201 | 7.0 | 12.0 | 0.00 | 0.00 | 0.00 | 73 | 1016.8 |
| 20260504044009 | 65 | 195 | 5.0 | 11.0 | 0.00 | 0.00 | 0.00 | 73 | 1017.1 |
| 20260504043506 | 65 | 202 | 9.0 | 10.0 | 0.00 | 0.00 | 0.00 | 73 | 1017.1 |
| 20260504043004 | 65 | 204 | 9.0 | 12.0 | 0.00 | 0.00 | 0.00 | 73 | 1017.2 |
| 20260504042500 | 65 | 204 | 6.0 | 10.0 | 0.00 | 0.00 | 0.00 | 73 | 1017.1 |
| 20260504041957 | 65 | 253 | 6.0 | 10.0 | 0.00 | 0.00 | 0.00 | 73 | 1017.1 |
| 20260504041453 | 65 | 226 | 4.0 | 10.0 | 0.00 | 0.00 | 0.00 | 73 | 1017.3 |
| 20260504040949 | 65 | 219 | 5.0 | 10.0 | 0.00 | 0.00 | 0.00 | 73 | 1017.5 |
| 20260504040447 | 65 | 204 | 7.0 | 13.0 | 0.00 | 0.00 | 0.00 | 73 | 1017.3 |
| 20260504035943 | 65 | 208 | 5.0 | 11.0 | 0.00 | 0.00 | 0.00 | 73 | 1017.5 |
| 20260504035441 | 66 | 229 | 9.0 | 12.0 | 0.00 | 0.00 | 0.00 | 73 | 1017.4 |
| 20260504034937 | 65 | 236 | 5.0 | 10.0 | 0.00 | 0.00 | 0.00 | 73 | 1017.6 |
| 20260504034435 | 66 | 228 | 9.0 | 15.0 | 0.00 | 0.00 | 0.00 | 73 | 1017.5 |
| 20260504033931 | 66 | 204 | 8.0 | 10.0 | 0.00 | 0.00 | 0.00 | 73 | 1017.6 |
| 20260504033429 | 66 | 232 | 5.0 | 13.0 | 0.00 | 0.00 | 0.00 | 73 | 1017.7 |
| 20260504032926 | 66 | 174 | 1.0 | 8.0 | 0.00 | 0.00 | 0.00 | 73 | 1017.6 |
| 20260504032423 | 66 | 217 | 7.0 | 9.0 | 0.00 | 0.00 | 0.00 | 73 | 1017.7 |
| 20260504031920 | 66 | 222 | 6.0 | 10.0 | 0.00 | 0.00 | 0.00 | 73 | 1017.9 |
| 20260504031417 | 65 | 220 | 6.0 | 9.0 | 0.00 | 0.00 | 0.00 | 73 | 1017.8 |
| 20260504030913 | 66 | 193 | 5.0 | 9.0 | 0.00 | 0.00 | 0.00 | 73 | 1017.7 |
| 20260504030410 | 66 | 205 | 7.0 | 8.0 | 0.00 | 0.00 | 0.00 | 73 | 1017.7 |
| 20260504025906 | 66 | 197 | 6.0 | 13.0 | 0.00 | 0.00 | 0.00 | 73 | 1017.5 |
| 20260504025403 | 66 | 199 | 5.0 | 9.0 | 0.00 | 0.00 | 0.00 | 73 | 1017.9 |